Showing default

COSMOS 2333, 24297

Orbit data source: Space-Track

COSMOS 2333, 24297 is a payload satellite owned by GRU (CIS) in LEO that was launched on Wed, 04 Sep 1996 UTC via a ZENIT-2 launch vehicle from the Tyuratam Missile And Space Complex (TTMTR). Payload-class satellites include a variety of spacecraft equipped with specific instruments for various scientific and technological missions. These include communications satellites like Starlink; space stations such as the ISS; scientific satellites like the Hubble; Earth observation satellites from companies like Planet Labs, Umbra, and HawkEye 360; GPS; miniature CubeSats for education and research; and military/defense satellites.

Loading next visibility...
Identifier
24297, 1996-051A
Orbit
LEO
Country
Flag of CISCIS
Related business
Manufacturer
Yuzhnoe
Mission
Defense Sigint
Bus & Motor
TSELINA-2, Unknown motor
Mass
3,250 kg wet, 3,250 kg dry
Launch date (UTC)
1996-09-04 (30 years ago)
Launch vehicle
ZENIT-2
Launch site
Tyuratam Missile And Space Complex (TTMTR)
Object type
Payload
Rocket body
Debris
Shape & HBR
Unknown shape, 9.5 m
Radar Cross Section
Large (>1 m²)

Expand to show TLE details & history
Last TLE update: 8 hours ago

TLE from 8 hours ago
0 COSMOS 2333
1 24297U 96051A   26094.29202325  .00000131  00000-0  94438-4 0  9998
2 24297  70.9014 130.4826 0021757  63.0818 297.2523 14.13820441525852
Epoch: 2026-04-04T07:00Z
TLE epoch observation values (Epoch: 2026-04-04T07:00:30.808Z)
Latitude
-0.00003°
Longitude
-167.25967°
Altitude
841.549 km
Speed
7.436 km/s
True Right ascension
08h 41m 55s
True Declination
0° 00' 00"
Sunlit
Object was in daylight at epoch
Visualization orbit readout
Latitude
Unknown
Longitude
Unknown
Altitude
Unknown
Speed
Unknown
Apparent Right ascension
Unknown
Apparent Declination
Unknown
Sunlit
N/A
Visualization observer readout
Local Sidereal Time
20:24:22
Azimuth
Unknown
Elevation
Unknown
Doppler factor
Unknown
Orbital elements
Apogee altitude
859.977 km
Perigee altitude
828.55 km
Semi-major axis
7,222.4 km
Eccentricity
0.00218
Inclination
70.9014°
RAAN
130.4826°
Arg. of periapsis
63.0818°
True anomaly
297.03038°
Mean anomaly
297.2523°
Eccentric anomaly
297.14137°
Mean motion
3.53607 °/min
Orbital period
101.81 mins
BSTAR
0.000094438
Loading maneuver chart data...
Computing Atmospheric mass density...
Loading historical data...
Loading historical data...
Loading historical data...
Loading historical data...
Loading historical data...
Loading historical data...
Loading historical data...

Documentation

Showing up to 5 results
|